{"data":{"norad_id":87991,"intl_designator":"","name":"UNKNOWN","alt_names":[],"object_type":"UNKNOWN","status":"UNKNOWN","operator":null,"country":null,"launch_date":null,"launch_site_code":null,"launch_vehicle":null,"mission":null,"orbit_class":"UNKNOWN","rcs_meters":null,"size_class":null,"mass_kg":null,"dimensions":null,"purposes":[],"wikipedia_slug":null,"has_3d_model":false,"image_url":null,"decayed_at":null,"tle_current":{"epoch":"2026-09-16T00:18:07.694784Z","epoch_age_seconds":402420,"freshness":"STALE","line1":"1 87991U          26259.01258906  .00003906  00000+0  77147-2 0  9994","line2":"2 87991  28.6184 175.0490 0888224 130.0579 238.1310 12.35673461557304","mean_motion":12.35673461,"eccentricity":0.0888224,"inclination_deg":28.6184,"raan_deg":175.049,"arg_perigee_deg":130.0579,"mean_anomaly_deg":238.131,"bstar":0.0077147,"rev_number":55730,"period_min":116.53564193526,"perigee_km":823.02193937091,"apogee_km":2226.9726505745,"semimajor_km":7903.1342949727,"source":"CELESTRAK","updated_at":"2026-09-20T09:00:32.481067Z"}}}